DW6743 Weather Reports


Display with metric or nautical units.
time (UTC)temp
F
wind
direction
speed
MPH
gust
MPH
rain 1hr
in
rain 24hr
in
rain mn
in
humidity
%
barometer
mb
20260902094804 63 298 12.0 15.0 0.00 0.47 0.00 78 1012.0
20260902094605 63 305 10.0 15.0 0.00 0.00 0.00 77 1012.0
20260902093804 63 306 11.0 15.0 0.00 0.47 0.00 78 1012.0
20260902093304 64 304 9.0 17.0 0.00 0.47 0.00 77 1011.9
20260902093107 63 310 12.0 17.0 0.00 0.00 0.00 76 1011.9
20260902091804 64 309 13.0 16.0 0.00 0.47 0.00 77 1012.0
20260902091602 64 287 12.0 18.0 0.00 0.00 0.00 77 1011.9
20260902091304 64 291 12.0 16.0 0.00 0.47 0.00 79 1011.8
20260902090804 64 305 13.0 17.0 0.00 0.47 0.00 79 1011.9
20260902090305 63 300 13.0 18.0 0.00 0.47 0.00 80 1011.9
20260902090105 62 293 12.0 18.0 0.00 0.00 0.00 79 1011.8
20260902084804 63 288 13.0 20.0 0.00 0.47 0.00 84 1011.8
20260902084603 62 314 12.0 19.0 0.00 0.00 0.00 83 1011.7
20260902084304 63 299 13.0 17.0 0.00 0.47 0.00 84 1011.8
20260902083304 63 282 15.0 22.0 0.00 0.47 0.00 83 1011.6
20260902083104 62 276 15.0 22.0 0.00 0.00 0.00 83 1011.7
20260902081605 63 297 16.0 22.0 0.00 0.00 0.00 82 1011.6
20260902081304 63 286 17.0 20.0 0.00 0.47 0.00 83 1011.6
20260902074604 62 285 18.0 24.0 0.00 0.00 0.00 83 1011.4
20260902073108 62 270 17.0 25.0 0.00 0.00 0.00 84 1011.2
20260902071604 62 282 18.0 26.0 0.00 0.00 0.00 84 1011.1
20260902070109 62 246 18.0 25.0 0.00 0.00 0.00 85 1011.2
20260902064606 62 273 16.0 22.0 0.00 0.00 0.00 85 1011.2
20260902063113 62 252 16.0 25.0 0.00 0.00 0.00 84 1011.2
20260902061626 62 285 17.0 24.0 0.00 0.00 0.00 84 1011.2
20260902060110 62 261 18.0 22.0 0.00 0.00 0.00 84 1011.2
20260902054603 61 262 18.0 22.0 0.00 0.00 0.00 84 1011.0
20260902053107 61 264 18.0 23.0 0.00 0.00 0.00 85 1011.0
20260902051616 61 258 17.0 24.0 0.00 0.00 0.00 85 1011.0
20260902050111 61 276 18.0 24.0 0.00 0.00 0.00 85 1010.9
20260902044636 61 268 19.0 24.0 0.00 0.00 0.00 85 1010.9
20260902043106 61 266 17.0 23.0 0.00 0.00 0.00 85 1010.8
20260902041606 61 271 19.0 22.0 0.00 0.00 0.00 85 1010.8
20260902040111 61 274 17.0 23.0 0.00 0.00 0.00 85 1010.8
20260902034604 61 260 18.0 24.0 0.00 0.00 0.00 85 1010.9
20260902033107 61 264 19.0 26.0 0.00 0.00 0.00 84 1011.0
20260902031619 62 256 19.0 24.0 0.00 0.00 0.00 83 1011.1
20260902030108 61 267 18.0 23.0 0.00 0.00 0.00 83 1011.1
20260902024605 61 265 15.0 22.0 0.00 0.00 0.00 83 1011.3
20260902023107 61 260 18.0 22.0 0.00 0.00 0.00 83 1011.5
20260902021608 61 286 16.0 21.0 0.00 0.00 0.00 83 1011.5
20260902020108 61 269 16.0 20.0 0.00 0.00 0.00 83 1011.5
20260902014603 61 272 15.0 20.0 0.00 0.02 0.00 82 1011.6
20260902013112 61 274 15.0 19.0 0.00 0.02 0.00 82 1011.6
20260902011603 61 260 13.0 22.0 0.00 0.02 0.00 82 1011.7
20260902010106 61 288 14.0 19.0 0.00 0.02 0.00 81 1011.8
20260902004804 61 274 13.0 18.0 0.00 0.88 0.00 82 1011.9
20260902004609 61 285 13.0 18.0 0.00 0.09 0.00 81 1012.0
20260902004304 61 283 12.0 18.0 0.00 0.88 0.00 82 1012.0
20260902003804 61 287 13.0 16.0 0.00 0.89 0.00 82 1012.1
20260902003106 61 281 11.0 21.0 0.00 0.09 0.00 81 1012.0
20260902001804 61 285 16.0 20.0 0.00 0.94 0.00 80 1012.2
20260902001608 60 287 16.0 20.0 0.00 0.09 0.00 79 1012.1
20260902000804 61 294 16.0 20.0 0.00 0.94 0.00 80 1012.2
20260902000107 61 285 14.0 21.0 0.00 0.09 0.00 79 1012.1
20260901234804 61 300 13.0 18.0 0.00 0.94 0.00 79 1012.2
20260901234609 60 287 15.0 20.0 0.00 0.09 0.00 79 1012.1
20260901233804 61 290 16.0 20.0 0.00 0.94 0.00 79 1012.2
20260901233306 61 287 14.0 18.0 0.00 0.94 0.00 80 1012.3
20260901233107 60 292 15.0 18.0 0.00 0.09 0.00 79 1012.3
20260901231804 60 282 13.0 16.0 0.00 0.94 0.00 80 1012.3
20260901231616 60 287 12.0 16.0 0.00 0.09 0.00 79 1012.3
20260901231304 60 286 11.0 16.0 0.00 0.94 0.00 80 1012.4
20260901230804 60 280 10.0 13.0 0.00 0.94 0.00 80 1012.4
20260901230304 60 291 10.0 18.0 0.00 0.94 0.00 79 1012.5
20260901230111 60 287 10.0 18.0 0.00 0.09 0.00 79 1012.3
20260901224804 61 295 10.0 18.0 0.00 0.94 0.00 79 1012.4
20260901224604 60 330 13.0 19.0 0.00 0.09 0.00 79 1012.3
20260901224304 61 302 14.0 20.0 0.00 0.94 0.00 79 1012.4
20260901223804 61 302 13.0 20.0 0.00 0.94 0.00 79 1012.4
20260901223104 60 291 15.0 20.0 0.00 0.09 0.00 79 1012.3
20260901221613 60 283 13.0 22.0 0.00 0.09 0.00 78 1012.4
20260901221304 61 302 16.0 21.0 0.00 0.94 0.00 79 1012.5
20260901220815 61 297 17.0 22.0 0.00 0.94 0.00 79 1012.4
20260901220304 61 304 17.0 24.0 0.00 0.94 0.00 79 1012.4
20260901220107 61 317 14.0 24.0 0.00 0.09 0.00 79 1012.5
20260901214804 61 287 20.0 23.0 0.00 0.94 0.09 79 1012.3
20260901214607 61 300 15.0 21.0 0.00 0.09 0.09 79 1012.2
20260901214304 61 299 15.0 20.0 0.00 0.94 0.09 80 1012.4
20260901213804 61 293 16.0 21.0 0.00 0.94 0.09 80 1012.2
20260901213305 61 294 15.0 24.0 0.00 0.94 0.09 80 1012.2
20260901213107 61 279 17.0 24.0 0.00 0.09 0.09 79 1012.2
20260901211804 62 299 14.0 20.0 0.00 0.94 0.09 80 1012.0
20260901211606 61 296 15.0 20.0 0.00 0.09 0.09 80 1012.1
20260901211304 62 290 14.0 20.0 0.00 0.94 0.09 80 1011.9
20260901210304 62 290 17.0 22.0 0.00 1.22 0.09 80 1012.0
20260901210105 61 281 15.0 21.0 0.00 0.09 0.09 80 1012.0
20260901204804 62 284 15.0 20.0 0.00 1.22 0.09 81 1012.0
20260901204607 61 278 15.0 19.0 0.00 0.09 0.09 81 1012.0
20260901204304 62 284 16.0 18.0 0.00 1.22 0.09 81 1012.0
20260901203305 62 297 12.0 21.0 0.00 1.50 0.09 81 1012.0
20260901203108 61 283 16.0 21.0 0.00 0.09 0.09 80 1011.8
20260901201804 62 296 18.0 23.0 0.00 1.40 0.09 81 1011.8
20260901201605 62 310 14.0 23.0 0.00 0.09 0.09 81 1011.7
20260901200804 63 284 18.0 23.0 0.00 1.40 0.09 81 1011.8
20260901200304 63 286 19.0 23.0 0.00 1.40 0.09 81 1011.8
20260901200107 62 290 14.0 22.0 0.00 0.09 0.09 80 1011.7
20260901194804 63 289 17.0 20.0 0.00 1.31 0.09 81 1011.7
20260901194609 62 283 14.0 20.0 0.00 0.09 0.09 80 1011.7
20260901194303 63 292 13.0 20.0 0.00 1.31 0.09 81 1011.7
20260901193304 63 291 14.0 20.0 0.00 1.31 0.09 81 1011.6
20260901193106 62 251 12.0 19.0 0.00 0.09 0.09 80 1011.6
20260901191804 63 295 11.0 18.0 0.00 1.31 0.09 81 1011.6
20260901191604 62 277 11.0 18.0 0.00 0.09 0.09 80 1011.5
20260901191305 63 293 14.0 17.0 0.00 1.31 0.09 81 1011.6
20260901190804 63 292 12.0 18.0 0.00 1.58 0.09 81 1011.6
20260901190110 62 289 13.0 17.0 0.00 0.09 0.09 80 1011.7
20260901184804 63 286 14.0 16.0 0.00 1.58 0.09 80 1011.5
20260901184608 62 281 12.0 16.0 0.00 0.12 0.09 80 1011.4
20260901184304 63 288 13.0 16.0 0.00 1.58 0.09 81 1011.4
20260901183123 63 316 9.0 19.0 0.00 0.12 0.09 80 1011.2
20260901181605 63 297 12.0 17.0 0.00 0.12 0.09 80 1011.2
20260901181304 63 294 14.0 17.0 0.00 1.61 0.09 80 1011.2
20260901180803 63 285 12.0 16.0 0.00 1.61 0.09 80 1011.2
20260901180304 63 285 12.0 17.0 0.00 1.61 0.09 80 1011.2
20260901180108 62 305 12.0 17.0 0.00 0.12 0.09 80 1011.2
20260901174607 62 278 11.0 16.0 0.00 0.12 0.09 79 1011.1
20260901174304 63 283 12.0 15.0 0.00 1.61 0.09 80 1011.2
20260901173804 63 294 13.0 15.0 0.00 1.61 0.09 80 1011.2
20260901173304 63 291 12.0 17.0 0.00 1.61 0.09 79 1011.3
20260901173155 62 290 13.0 17.0 0.00 0.12 0.09 79 1011.2
20260901171804 63 302 12.0 18.0 0.00 1.61 0.09 79 1011.1
20260901171606 63 296 13.0 18.0 0.00 0.12 0.09 78 1011.1
20260901171304 63 292 11.0 18.0 0.00 1.61 0.09 79 1011.0
20260901170804 64 302 13.0 18.0 0.00 1.86 0.09 78 1011.1
20260901170108 63 300 17.0 20.0 0.00 0.12 0.09 78 1011.1
20260901164804 64 286 14.0 18.0 0.00 1.76 0.09 77 1010.9
20260901164610 63 300 13.0 18.0 0.00 0.12 0.09 77 1010.9
20260901163803 64 302 14.0 18.0 0.00 1.76 0.09 77 1010.9
20260901163304 64 288 13.0 17.0 0.00 1.76 0.09 76 1010.8
20260901163119 64 300 13.0 17.0 0.00 0.12 0.09 76 1010.8
20260901161804 65 285 14.0 20.0 0.00 1.76 0.09 75 1010.8
20260901161609 65 269 13.0 17.0 0.00 0.12 0.09 74 1010.8
20260901161304 65 286 13.0 17.0 0.00 1.67 0.09 74 1010.8
20260901160804 65 288 13.0 16.0 0.00 1.67 0.09 74 1010.7
20260901160304 66 282 14.0 18.0 0.00 1.67 0.09 73 1010.6
20260901160108 65 289 12.0 18.0 0.00 0.12 0.09 73 1010.6
20260901154804 66 283 13.0 17.0 0.00 1.67 0.09 73 1010.6
20260901154607 66 291 15.0 18.0 0.00 0.20 0.09 73 1010.6
20260901154304 66 290 15.0 18.0 0.00 1.67 0.09 74 1010.5
20260901153804 66 290 14.0 16.0 0.00 1.68 0.09 73 1010.5
20260901153304 66 290 13.0 16.0 0.00 1.69 0.09 74 1010.5
20260901153106 66 272 12.0 15.0 0.00 0.20 0.09 73 1010.4
20260901151804 67 290 13.0 15.0 0.00 2.12 0.09 72 1010.5
20260901151612 66 273 11.0 17.0 0.00 0.20 0.09 72 1010.5
20260901151304 67 286 13.0 17.0 0.00 2.13 0.09 73 1010.5
20260901150804 67 291 12.0 16.0 0.00 2.13 0.09 73 1010.5
20260901150304 66 289 13.0 17.0 0.00 2.15 0.09 73 1010.6
20260901150108 66 264 12.0 17.0 0.00 0.20 0.09 73 1010.5
20260901144804 67 292 13.0 17.0 0.00 2.31 0.09 73 1010.5
20260901144606 67 283 14.0 17.0 0.00 0.26 0.09 72 1010.4
20260901143804 67 291 14.0 17.0 0.00 2.35 0.09 74 1010.5
20260901143304 67 299 12.0 17.0 0.00 2.35 0.09 74 1010.5
20260901143110 67 293 10.0 14.0 0.00 0.26 0.09 73 1010.4
20260901141804 67 293 9.0 13.0 0.00 2.35 0.09 75 1010.3
20260901141617 66 287 8.0 15.0 0.00 0.26 0.09 74 1010.3
20260901141304 66 298 11.0 14.0 0.00 2.35 0.09 74 1010.3
20260901140804 66 285 13.0 15.0 0.00 2.35 0.09 75 1010.4
20260901140107 66 289 10.0 17.0 0.00 0.26 0.09 74 1010.4
20260901134606 66 283 12.0 16.0 0.00 0.36 0.09 74 1010.3
20260901134304 67 279 13.0 16.0 0.00 2.35 0.09 74 1010.4
20260901133803 67 276 10.0 14.0 0.00 2.35 0.09 75 1010.3
20260901133304 67 281 13.0 16.0 0.00 2.37 0.09 75 1010.4
20260901133106 66 283 13.0 16.0 0.00 0.36 0.09 75 1010.3
20260901131804 66 283 10.0 15.0 0.00 2.39 0.09 76 1010.4
20260901131609 66 285 11.0 15.0 0.00 0.36 0.09 76 1010.3
20260901131304 67 280 13.0 14.0 0.00 2.40 0.09 76 1010.4
20260901130804 66 279 12.0 15.0 0.00 2.43 0.09 75 1010.4
20260901130304 66 278 11.0 14.0 0.00 2.44 0.09 77 1010.4
20260901130110 66 260 10.0 14.0 0.00 0.36 0.09 77 1010.3
20260901124804 66 265 9.0 13.0 0.00 2.46 0.09 76 1010.3
20260901124605 66 268 9.0 13.0 0.00 0.37 0.09 76 1010.3
20260901124304 66 271 8.0 13.0 0.00 2.46 0.09 77 1010.3
20260901123804 66 286 10.0 14.0 0.00 2.46 0.09 78 1010.2
20260901123304 66 281 10.0 15.0 0.00 2.46 0.09 77 1010.3
20260901123106 65 281 10.0 15.0 0.00 0.37 0.09 77 1010.3
20260901121804 66 266 10.0 12.0 0.00 2.46 0.09 78 1010.2
20260901121611 66 259 9.0 12.0 0.00 0.37 0.09 77 1010.2
20260901121304 66 253 10.0 12.0 0.00 2.46 0.09 77 1010.2
20260901120804 67 256 7.0 10.0 0.00 2.46 0.09 78 1010.2
20260901120111 66 253 5.0 10.0 0.00 0.37 0.09 76 1010.2
20260901114804 66 287 6.0 9.0 0.00 2.46 0.09 78 1010.2
20260901114605 65 270 6.0 10.0 0.00 0.37 0.09 77 1010.1
20260901114304 66 266 6.0 9.0 0.00 2.46 0.09 77 1010.2
20260901113804 66 265 6.0 10.0 0.00 2.46 0.09 77 1010.2
20260901113304 66 294 8.0 12.0 0.00 2.46 0.09 78 1010.1
20260901113106 65 245 7.0 11.0 0.00 0.37 0.09 77 1010.1
20260901111804 65 248 6.0 10.0 0.00 2.46 0.09 79 1010.0
20260901111607 65 256 7.0 11.0 0.00 0.37 0.09 79 1010.0
20260901110803 65 278 7.0 12.0 0.00 2.46 0.09 78 1010.0
20260901110108 64 282 7.0 11.0 0.00 0.37 0.09 78 1010.0
20260901104804 64 263 8.0 12.0 0.00 2.46 0.09 79 1009.9
20260901104605 64 253 8.0 11.0 0.00 0.37 0.09 78 1009.8
20260901104304 64 269 9.0 12.0 0.00 2.46 0.09 79 1009.9
20260901103804 64 275 9.0 12.0 0.00 2.46 0.09 79 1009.8
20260901103304 64 266 10.0 12.0 0.00 2.46 0.09 80 1009.8
20260901103105 64 277 7.0 12.0 0.00 0.37 0.09 79 1009.7
20260901101804 64 302 10.0 12.0 0.00 2.36 0.09 80 1009.7
20260901101609 63 285 7.0 13.0 0.00 0.37 0.09 80 1009.5
20260901101304 64 276 9.0 13.0 0.00 2.36 0.09 80 1009.6
20260901100804 64 279 7.0 13.0 0.00 2.36 0.09 80 1009.5
20260901100111 64 278 8.0 13.0 0.00 0.37 0.09 80 1009.4